Home > Weather > Inuvik > Past weeks

Flag for Canada Weather for the Past 2 Weeks in Inuvik, Northwest Territories, Canada

Now
-9 °F

Overcast.


Feels Like: -24 °F
Forecast: -14 / -5 °F
Wind: 7 mph from East

Location: Inuvik

Current Time: Feb 8, 2016 at 6:36:46 AM

Latest Report: Feb 8, 2016 at 6:00 AM


Visibility: 15 mi

Pressure: 30.31 "Hg

Humidity: 77%

Dew point: -15 °F

Location of InuvikLocation

Historic Weather in Inuvik — Graph

°F

Inuvik Temperature Yesterday

Maximum temperature yesterday: -15 °F (at 3:00 PM)
Minimum temperature yesterday: -24 °F (at 6:00 AM)
Average temperature yesterday: -19 °F

High & Low Weather Summary for the Past Weeks

 TemperatureHumidityPressure
High14 °F (Jan 31, 5:00 AM)92% (Jan 29, 7:00 AM)30.39 "Hg (Jan 29, 7:00 AM)
Low-33 °F (Feb 5, 3:00 AM)67% (Feb 4, 10:00 AM)29.22 "Hg (Jan 28, 10:54 AM)
Average-6 °F80%29.90 "Hg
* Reported Jan 24 5:00 AM — Feb 8 5:00 AM, Inuvik, Weather by CustomWeather, © 2016

Note: Actual official high and low records may vary slightly from our data, if they occured in-between our weather recording intervals... More about our weather records

Advertising

Inuvik Weather History for the Previous 24 Hours

 ConditionsComfort  
Time TempWeatherWind HumidityBarometerVisibility
5:00 AM
Mon, Feb 8
-11 °FOvercast.8 mph76%30.30 "Hg15 mi
4:00 AM-11 °FOvercast.6 mph84%30.31 "Hg15 mi
3:00 AM-11 °FPassing clouds.6 mph76%30.32 "Hg15 mi
2:00 AM-13 °FClear.6 mph76%30.32 "Hg15 mi
1:00 AM-15 °FClear.12 mph83%30.31 "Hg15 mi
12:00 AM-15 °FClear.9 mph76%30.32 "Hg15 mi
11:00 PM
Sun, Feb 7
-15 °FClear.9 mph76%30.32 "Hg15 mi
10:00 PM-15 °FClear.9 mph76%30.33 "Hg15 mi
9:00 PM-17 °FClear.9 mph76%30.34 "Hg15 mi
8:00 PM-17 °FPassing clouds.9 mph76%30.34 "Hg15 mi
7:00 PM-18 °FPassing clouds.9 mph75%30.34 "Hg15 mi
6:00 PM-18 °FPassing clouds.9 mph75%30.36 "Hg15 mi
5:00 PM-18 °FPassing clouds.5 mph75%30.37 "Hg15 mi
4:00 PM-15 °FPassing clouds.5 mph76%30.37 "Hg15 mi
3:00 PM-15 °FPassing clouds.6 mph83%30.38 "Hg15 mi
2:00 PM-17 °FPassing clouds.7 mph76%30.38 "Hg15 mi
1:00 PM-18 °FPassing clouds.6 mph75%30.39 "Hg15 mi
12:00 PM-18 °FPassing clouds.6 mph75%30.38 "Hg15 mi
11:00 AM-22 °FPassing clouds.5 mph68%30.38 "Hg15 mi
10:00 AM-24 °FPassing clouds.6 mph75%30.38 "Hg15 mi
9:00 AM-24 °FPassing clouds.3 mph75%30.37 "Hg15 mi
8:00 AM-24 °FClear.5 mph75%30.37 "Hg15 mi
7:00 AM-24 °FClear.3 mph75%30.36 "Hg15 mi
6:00 AM-24 °FClear.3 mph75%30.35 "Hg15 mi
Weather by CustomWeather, © 2016

See weather overviewHow to use our weather pages